TFL8WL LIBR-EHAM

Flight info

Callsign TFL8WL
Flight time 2h 27m
Altitude 36000
Route DOLON6G DOLON L612 VIE DCT BUSER DCT GIKEB DCT UNIMI DCT KPT DCT TEDGO L608 LIRSU DCT BUB Y28 HELEN HELEN2A
Aircraft B38M/M-SDE1FGHILORVWXY/HB1

Departure

Time 2026-04-29 08:52
Airport Brindisi Airport (LIBR)

Arrival

Time 2026-04-29 11:20
Airport Amsterdam Airport Schiphol (EHAM)
Time Latitude Longitude Altitude Speed Heading
2026-04-29 08:27 40.65651 17.93845 45 ft 0 kts
2026-04-29 08:45 40.65654 17.93856 46 ft 2 kts 95°
2026-04-29 08:45 40.65626 17.93867 46 ft 10 kts 167°
2026-04-29 08:46 40.65593 17.93960 46 ft 16 kts 54°
2026-04-29 08:46 40.65665 17.94083 46 ft 18 kts 52°
2026-04-29 08:46 40.65744 17.94219 46 ft 19 kts 52°
2026-04-29 08:46 40.65830 17.94367 46 ft 21 kts 52°
2026-04-29 08:47 40.65926 17.94531 42 ft 24 kts 52°
2026-04-29 08:47 40.66021 17.94692 45 ft 12 kts 52°
2026-04-29 08:47 40.66077 17.94693 46 ft 10 kts 316°
2026-04-29 08:47 40.66131 17.94627 46 ft 11 kts 317°
2026-04-29 08:48 40.66194 17.94550 46 ft 13 kts 317°
2026-04-29 08:48 40.66268 17.94459 46 ft 16 kts 317°
2026-04-29 08:48 40.66361 17.94346 46 ft 20 kts 316°
2026-04-29 08:48 40.66473 17.94208 46 ft 24 kts 317°
2026-04-29 08:49 40.66609 17.94043 46 ft 29 kts 318°
2026-04-29 08:49 40.66763 17.93859 46 ft 31 kts 318°
2026-04-29 08:49 40.66921 17.93664 46 ft 32 kts 317°
2026-04-29 08:49 40.67088 17.93461 46 ft 33 kts 317°
2026-04-29 08:50 40.67258 17.93255 46 ft 34 kts 317°
2026-04-29 08:50 40.67433 17.93042 46 ft 35 kts 317°
2026-04-29 08:50 40.67603 17.92835 46 ft 27 kts 316°
2026-04-29 08:50 40.67625 17.92705 45 ft 16 kts 226°
2026-04-29 08:51 40.67521 17.92634 40 ft 19 kts 149°
2026-04-29 08:51 40.67414 17.92764 42 ft 26 kts 137°
2026-04-29 08:51 40.67112 17.93135 44 ft 94 kts 137°
2026-04-29 08:51 40.66474 17.93914 44 ft 153 kts 137°
2026-04-29 08:52 40.65604 17.94986 352 ft 179 kts 135°
2026-04-29 08:52 40.64694 17.96124 1128 ft 182 kts 138°
2026-04-29 08:52 40.63721 17.97314 1711 ft 200 kts 140°
2026-04-29 08:52 40.62637 17.98600 2262 ft 221 kts 141°
2026-04-29 08:53 40.61437 17.99955 2754 ft 240 kts 141°
2026-04-29 08:53 40.60260 18.01637 3258 ft 262 kts 122°
2026-04-29 08:53 40.59844 18.03973 4088 ft 266 kts 84°
2026-04-29 08:53 40.60467 18.06263 4902 ft 273 kts 53°
2026-04-29 08:54 40.61912 18.07845 5670 ft 274 kts 21°
2026-04-29 08:54 40.63777 18.08227 6408 ft 274 kts 349°
2026-04-29 08:54 40.65523 18.07314 7171 ft 273 kts 325°
2026-04-29 08:54 40.67143 18.05992 7959 ft 275 kts 329°
2026-04-29 08:55 40.68799 18.04692 8702 ft 279 kts 323°
2026-04-29 08:55 40.70198 18.02943 9476 ft 280 kts 305°
2026-04-29 08:55 40.71041 18.00639 10206 ft 281 kts 283°
2026-04-29 08:55 40.71399 17.98043 10617 ft 297 kts 281°
2026-04-29 08:56 40.71792 17.95281 10940 ft 315 kts 281°
2026-04-29 08:56 40.72214 17.92405 11503 ft 323 kts 281°
2026-04-29 08:56 40.72648 17.89484 12239 ft 326 kts 282°
2026-04-29 08:56 40.73087 17.86542 13029 ft 329 kts 282°
2026-04-29 08:57 40.73683 17.83620 13748 ft 332 kts 295°
2026-04-29 08:57 40.74983 17.81107 14468 ft 335 kts 310°
2026-04-29 08:57 40.76489 17.78730 15134 ft 340 kts 309°
2026-04-29 08:57 40.78017 17.76333 15862 ft 342 kts 309°
2026-04-29 08:58 40.79563 17.73925 16553 ft 346 kts 309°
2026-04-29 08:58 40.81132 17.71494 17201 ft 350 kts 309°
2026-04-29 08:58 40.82721 17.69035 17907 ft 353 kts 309°
2026-04-29 08:58 40.84319 17.66563 18576 ft 355 kts 309°
2026-04-29 08:59 40.85929 17.64073 19140 ft 358 kts 309°
2026-04-29 08:59 40.87554 17.61557 19721 ft 361 kts 309°
2026-04-29 08:59 40.89205 17.59052 20275 ft 364 kts 310°
2026-04-29 08:59 40.90909 17.56563 20841 ft 366 kts 310°
2026-04-29 09:00 40.92623 17.54047 21385 ft 369 kts 310°
2026-04-29 09:00 40.94344 17.51515 21935 ft 372 kts 310°
2026-04-29 09:00 40.96079 17.48958 22483 ft 375 kts 310°
2026-04-29 09:00 40.97825 17.46382 23015 ft 377 kts 310°
2026-04-29 09:01 40.99582 17.43787 23533 ft 380 kts 311°
2026-04-29 09:01 41.01333 17.41198 23966 ft 383 kts 311°
2026-04-29 09:01 41.03113 17.38566 24391 ft 386 kts 310°
2026-04-29 09:01 41.04908 17.35908 24804 ft 388 kts 310°
2026-04-29 09:02 41.06715 17.33231 25226 ft 391 kts 310°
2026-04-29 09:02 41.08531 17.30537 25640 ft 393 kts 310°
2026-04-29 09:02 41.10356 17.27827 26065 ft 395 kts 310°
2026-04-29 09:02 41.12186 17.25108 26479 ft 397 kts 310°
2026-04-29 09:03 41.14033 17.22361 26865 ft 399 kts 310°
2026-04-29 09:03 41.15885 17.19605 27255 ft 402 kts 310°
2026-04-29 09:03 41.17749 17.16828 27636 ft 404 kts 310°
2026-04-29 09:03 41.19616 17.14027 28012 ft 406 kts 310°
2026-04-29 09:04 41.21495 17.11206 28382 ft 408 kts 310°
2026-04-29 09:04 41.23380 17.08374 28743 ft 411 kts 310°
2026-04-29 09:04 41.25280 17.05517 29104 ft 413 kts 310°
2026-04-29 09:04 41.27187 17.02647 29432 ft 416 kts 310°
2026-04-29 09:05 41.29105 16.99757 29762 ft 418 kts 310°
2026-04-29 09:05 41.31035 16.96847 30107 ft 420 kts 310°
2026-04-29 09:05 41.32973 16.93921 30384 ft 423 kts 310°
2026-04-29 09:05 41.34919 16.90981 30690 ft 424 kts 310°
2026-04-29 09:06 41.36873 16.88026 30989 ft 426 kts 310°
2026-04-29 09:06 41.38838 16.85068 31313 ft 427 kts 310°
2026-04-29 09:06 41.40809 16.82101 31587 ft 429 kts 310°
2026-04-29 09:06 41.42787 16.79120 31870 ft 430 kts 310°
2026-04-29 09:07 41.44772 16.76125 32161 ft 432 kts 310°
2026-04-29 09:07 41.46759 16.73125 32532 ft 431 kts 310°
2026-04-29 09:07 41.48736 16.70136 32921 ft 430 kts 310°
2026-04-29 09:07 41.50711 16.67147 33270 ft 429 kts 310°
2026-04-29 09:08 41.52659 16.64196 33604 ft 429 kts 309°
2026-04-29 09:08 41.54622 16.61209 33979 ft 428 kts 309°
2026-04-29 09:08 41.56585 16.58222 34300 ft 427 kts 309°
2026-04-29 09:08 41.58537 16.55248 34615 ft 426 kts 309°
2026-04-29 09:09 41.60486 16.52276 34929 ft 425 kts 309°
2026-04-29 09:09 41.62428 16.49310 35239 ft 423 kts 309°
2026-04-29 09:09 41.64369 16.46344 35526 ft 423 kts 309°
2026-04-29 09:09 41.66298 16.43394 35810 ft 422 kts 309°
2026-04-29 09:10 41.68226 16.40441 36045 ft 421 kts 309°
2026-04-29 09:10 41.72076 16.34538 36049 ft 419 kts 309°
2026-04-29 09:11 41.75912 16.28644 36064 ft 421 kts 309°
2026-04-29 09:11 41.79756 16.22726 36061 ft 421 kts 309°
2026-04-29 09:12 41.83595 16.16804 36053 ft 421 kts 309°
2026-04-29 09:12 41.87432 16.10873 36065 ft 421 kts 309°
2026-04-29 09:13 41.91301 16.04990 36052 ft 420 kts 316°
2026-04-29 09:13 41.95865 16.00145 36040 ft 422 kts 319°
2026-04-29 09:14 42.00494 15.95278 36068 ft 423 kts 320°
2026-04-29 09:14 42.05137 15.90405 36068 ft 423 kts 320°
2026-04-29 09:15 42.09777 15.85527 36069 ft 423 kts 320°
2026-04-29 09:15 42.14410 15.80649 36071 ft 422 kts 320°
2026-04-29 09:16 42.19028 15.75776 36061 ft 421 kts 319°
2026-04-29 09:16 42.23645 15.70896 36059 ft 422 kts 319°
2026-04-29 09:17 42.28261 15.66006 36060 ft 422 kts 319°
2026-04-29 09:17 42.32845 15.61142 36058 ft 423 kts 319°
2026-04-29 09:18 42.37470 15.56224 36074 ft 423 kts 319°
2026-04-29 09:18 42.42074 15.51320 36059 ft 421 kts 319°
2026-04-29 09:19 42.46679 15.46406 36059 ft 421 kts 319°
2026-04-29 09:19 42.50501 15.42319 36059 ft 421 kts 319°
2026-04-29 09:20 42.55099 15.37394 36063 ft 421 kts 319°
2026-04-29 09:20 42.59691 15.32466 36072 ft 421 kts 319°
2026-04-29 09:21 42.64274 15.27538 36048 ft 420 kts 319°
2026-04-29 09:21 42.68859 15.22599 36063 ft 421 kts 319°
2026-04-29 09:22 42.73447 15.17647 36063 ft 421 kts 319°
2026-04-29 09:22 42.78032 15.12688 36060 ft 421 kts 319°
2026-04-29 09:23 42.82614 15.07723 36057 ft 421 kts 319°
2026-04-29 09:23 42.87157 15.02790 36056 ft 419 kts 319°
2026-04-29 09:24 42.91715 14.97832 36058 ft 419 kts 319°
2026-04-29 09:24 42.96273 14.92865 36060 ft 419 kts 319°
2026-04-29 09:25 43.00833 14.87884 36059 ft 420 kts 318°
2026-04-29 09:25 43.05398 14.82889 36061 ft 420 kts 318°
2026-04-29 09:26 43.09952 14.77896 36064 ft 418 kts 318°
2026-04-29 09:26 43.14493 14.72908 36062 ft 419 kts 318°
2026-04-29 09:27 43.19031 14.67912 36062 ft 418 kts 318°
2026-04-29 09:27 43.23568 14.62909 36061 ft 419 kts 318°
2026-04-29 09:28 43.28103 14.57898 36059 ft 418 kts 318°
2026-04-29 09:28 43.32632 14.52883 36055 ft 417 kts 318°
2026-04-29 09:29 43.37142 14.47880 36071 ft 417 kts 318°
2026-04-29 09:29 43.43911 14.40352 36062 ft 417 kts 318°
2026-04-29 09:30 43.48385 14.35364 36063 ft 417 kts 317°
2026-04-29 09:30 43.52887 14.30334 36089 ft 416 kts 317°
2026-04-29 09:31 43.57368 14.25319 36064 ft 414 kts 317°
2026-04-29 09:31 43.61840 14.20305 36050 ft 415 kts 317°
2026-04-29 09:32 43.66332 14.15256 36068 ft 417 kts 317°
2026-04-29 09:32 43.70823 14.10199 36062 ft 416 kts 317°
2026-04-29 09:33 43.75313 14.05133 36089 ft 416 kts 317°
2026-04-29 09:33 43.79752 14.00115 36065 ft 414 kts 317°
2026-04-29 09:34 43.84209 13.95067 36071 ft 414 kts 317°
2026-04-29 09:34 43.88659 13.90017 36070 ft 414 kts 317°
2026-04-29 09:35 43.93112 13.84954 36054 ft 414 kts 317°
2026-04-29 09:35 43.97580 13.79866 36069 ft 416 kts 317°
2026-04-29 09:36 44.02050 13.74764 36065 ft 416 kts 317°
2026-04-29 09:36 44.06524 13.69648 36064 ft 416 kts 317°
2026-04-29 09:37 44.11039 13.64611 36054 ft 418 kts 323°
2026-04-29 09:37 44.15920 13.60192 36064 ft 419 kts 323°
2026-04-29 09:38 44.20757 13.55678 36079 ft 417 kts 322°
2026-04-29 09:38 44.25563 13.51161 36060 ft 416 kts 322°
2026-04-29 09:39 44.30338 13.46662 36069 ft 418 kts 322°
2026-04-29 09:39 44.35154 13.42116 36065 ft 418 kts 322°
2026-04-29 09:40 44.39964 13.37566 36064 ft 418 kts 322°
2026-04-29 09:40 44.44766 13.33014 36062 ft 416 kts 322°
2026-04-29 09:41 44.49546 13.28474 36065 ft 416 kts 322°
2026-04-29 09:41 44.54334 13.23917 36066 ft 417 kts 322°
2026-04-29 09:42 44.59134 13.19340 36069 ft 417 kts 322°
2026-04-29 09:42 44.63932 13.14755 36085 ft 416 kts 322°
2026-04-29 09:43 44.68701 13.10188 36071 ft 415 kts 322°
2026-04-29 09:43 44.73473 13.05610 36071 ft 415 kts 322°
2026-04-29 09:44 44.78239 13.01029 36071 ft 415 kts 322°
2026-04-29 09:44 44.83010 12.96432 36080 ft 417 kts 322°
2026-04-29 09:45 44.87785 12.91823 36076 ft 415 kts 322°
2026-04-29 09:45 44.92539 12.87224 36082 ft 415 kts 322°
2026-04-29 09:46 44.97292 12.82616 36080 ft 415 kts 322°
2026-04-29 09:46 45.02015 12.78030 36083 ft 415 kts 322°
2026-04-29 09:47 45.06766 12.73405 36092 ft 414 kts 321°
2026-04-29 09:47 45.11516 12.68773 36087 ft 415 kts 321°
2026-04-29 09:48 45.16263 12.64134 36091 ft 415 kts 321°
2026-04-29 09:48 45.21010 12.59485 36092 ft 415 kts 321°
2026-04-29 09:49 45.25757 12.54826 36096 ft 415 kts 321°
2026-04-29 09:49 45.30499 12.50164 36110 ft 414 kts 321°
2026-04-29 09:50 45.35218 12.45514 36098 ft 413 kts 321°
2026-04-29 09:50 45.39941 12.40849 36103 ft 414 kts 321°
2026-04-29 09:51 45.44668 12.36172 36103 ft 414 kts 321°
2026-04-29 09:51 45.49391 12.31490 36100 ft 414 kts 321°
2026-04-29 09:52 45.54109 12.26802 36101 ft 412 kts 321°
2026-04-29 09:52 45.58807 12.22124 36103 ft 412 kts 321°
2026-04-29 09:53 45.63512 12.17430 36095 ft 413 kts 321°
2026-04-29 09:53 45.68220 12.12722 36102 ft 414 kts 321°
2026-04-29 09:54 45.72935 12.07998 36125 ft 413 kts 321°
2026-04-29 09:54 45.77629 12.03285 36104 ft 411 kts 321°
2026-04-29 09:55 45.82306 11.98579 36114 ft 411 kts 321°
2026-04-29 09:55 45.86980 11.93866 36125 ft 411 kts 321°
2026-04-29 09:56 45.91659 11.89139 36106 ft 411 kts 321°
2026-04-29 09:56 45.96345 11.84395 36174 ft 413 kts 321°
2026-04-29 09:57 46.00990 11.79683 36099 ft 410 kts 321°
2026-04-29 09:57 46.05651 11.74946 36122 ft 411 kts 321°
2026-04-29 09:58 46.10322 11.70190 36129 ft 411 kts 321°
2026-04-29 09:58 46.14992 11.65424 36142 ft 411 kts 321°
2026-04-29 09:59 46.19796 11.60949 36141 ft 414 kts 329°
2026-04-29 09:59 46.24851 11.56964 36114 ft 413 kts 327°
2026-04-29 10:00 46.29862 11.52898 36137 ft 413 kts 327°
2026-04-29 10:00 46.34866 11.48815 36150 ft 413 kts 327°
2026-04-29 10:01 46.39870 11.44721 36170 ft 413 kts 327°
2026-04-29 10:01 46.44855 11.40636 36134 ft 411 kts 326°
2026-04-29 10:02 46.49843 11.36539 36198 ft 413 kts 326°
2026-04-29 10:02 46.54833 11.32432 36140 ft 411 kts 326°
2026-04-29 10:03 46.59820 11.28318 36157 ft 412 kts 326°
2026-04-29 10:03 46.64806 11.24197 36170 ft 412 kts 326°
2026-04-29 10:04 46.69787 11.20071 36184 ft 412 kts 326°
2026-04-29 10:04 46.74763 11.15939 36167 ft 411 kts 326°
2026-04-29 10:05 46.79746 11.11795 36199 ft 412 kts 326°
2026-04-29 10:05 46.84717 11.07652 36177 ft 411 kts 326°
2026-04-29 10:06 46.89770 11.03631 36186 ft 414 kts 327°
2026-04-29 10:06 46.94831 10.99609 36207 ft 415 kts 327°
2026-04-29 10:07 46.99895 10.95572 36208 ft 414 kts 327°
2026-04-29 10:07 47.04954 10.91529 36186 ft 414 kts 327°
2026-04-29 10:08 47.10016 10.87476 36196 ft 414 kts 327°
2026-04-29 10:08 47.15073 10.83417 36162 ft 414 kts 327°
2026-04-29 10:09 47.19265 10.80045 36181 ft 414 kts 327°
2026-04-29 10:09 47.25131 10.75319 36178 ft 414 kts 327°
2026-04-29 10:10 47.30171 10.71247 36167 ft 412 kts 327°
2026-04-29 10:10 47.35210 10.67167 36165 ft 413 kts 327°
2026-04-29 10:11 47.39425 10.63748 36148 ft 412 kts 327°
2026-04-29 10:11 47.44432 10.59677 36145 ft 414 kts 327°
2026-04-29 10:12 47.49501 10.55548 36153 ft 414 kts 327°
2026-04-29 10:12 47.54507 10.51461 36164 ft 413 kts 327°
2026-04-29 10:13 47.59531 10.47349 36155 ft 413 kts 327°
2026-04-29 10:13 47.64566 10.43220 36138 ft 414 kts 327°
2026-04-29 10:14 47.69603 10.39082 36147 ft 414 kts 327°
2026-04-29 10:14 47.74604 10.34882 36140 ft 411 kts 321°
2026-04-29 10:15 47.79009 10.29545 36122 ft 409 kts 317°
2026-04-29 10:15 47.83395 10.24186 36179 ft 409 kts 317°
2026-04-29 10:16 47.87777 10.18804 36170 ft 408 kts 317°
2026-04-29 10:16 47.92171 10.13393 36190 ft 411 kts 317°
2026-04-29 10:17 47.96574 10.07960 36180 ft 410 kts 317°
2026-04-29 10:17 48.00968 10.02525 36198 ft 411 kts 317°
2026-04-29 10:18 48.05365 9.97074 36181 ft 411 kts 317°
2026-04-29 10:18 48.09760 9.91612 36178 ft 411 kts 317°
2026-04-29 10:19 48.14156 9.86138 36184 ft 411 kts 317°
2026-04-29 10:19 48.18551 9.80651 36182 ft 412 kts 317°
2026-04-29 10:20 48.22947 9.75149 36181 ft 411 kts 317°
2026-04-29 10:20 48.27344 9.69635 36182 ft 412 kts 318°
2026-04-29 10:21 48.31744 9.64104 36176 ft 412 kts 318°
2026-04-29 10:21 48.36139 9.58566 36171 ft 412 kts 317°
2026-04-29 10:22 48.40535 9.53014 36163 ft 412 kts 317°
2026-04-29 10:22 48.44927 9.47455 36159 ft 413 kts 317°
2026-04-29 10:23 48.49289 9.41920 36165 ft 413 kts 317°
2026-04-29 10:23 48.53673 9.36344 36183 ft 413 kts 317°
2026-04-29 10:24 48.58064 9.30750 36183 ft 413 kts 317°
2026-04-29 10:24 48.62634 9.25530 36154 ft 416 kts 332°
2026-04-29 10:25 48.67931 9.21959 36154 ft 418 kts 333°
2026-04-29 10:25 48.73283 9.18371 36196 ft 419 kts 333°
2026-04-29 10:26 48.78590 9.14847 36179 ft 419 kts 333°
2026-04-29 10:26 48.83932 9.11297 36182 ft 419 kts 333°
2026-04-29 10:27 48.91906 9.05866 36183 ft 419 kts 332°
2026-04-29 10:28 48.97210 9.02193 36196 ft 420 kts 333°
2026-04-29 10:28 49.02543 8.98492 36203 ft 422 kts 333°
2026-04-29 10:29 49.07889 8.94776 36188 ft 422 kts 333°
2026-04-29 10:29 49.13223 8.91057 36209 ft 422 kts 333°
2026-04-29 10:30 49.18557 8.87331 36216 ft 421 kts 333°
2026-04-29 10:30 49.24125 8.84361 36234 ft 426 kts 340°
2026-04-29 10:31 49.29772 8.81594 36217 ft 426 kts 340°
2026-04-29 10:31 49.35418 8.78835 36224 ft 426 kts 340°
2026-04-29 10:32 49.41062 8.76072 36240 ft 426 kts 340°
2026-04-29 10:32 49.46717 8.73297 36236 ft 427 kts 341°
2026-04-29 10:33 49.52376 8.70513 36241 ft 427 kts 341°
2026-04-29 10:33 49.58037 8.67721 36237 ft 427 kts 341°
2026-04-29 10:34 49.63696 8.64924 36238 ft 427 kts 341°
2026-04-29 10:34 49.69356 8.62112 36241 ft 427 kts 339°
2026-04-29 10:34 49.72000 8.60091 36216 ft 424 kts 323°
2026-04-29 10:35 49.74236 8.57132 36249 ft 424 kts 318°
2026-04-29 10:35 49.78618 8.50975 36248 ft 426 kts 317°
2026-04-29 10:36 49.82947 8.44698 36242 ft 426 kts 314°
2026-04-29 10:36 49.84722 8.41057 36236 ft 425 kts 298°
2026-04-29 10:36 49.85827 8.36812 36257 ft 427 kts 291°
2026-04-29 10:37 49.87780 8.28086 36257 ft 429 kts 290°
2026-04-29 10:37 49.89649 8.19318 36256 ft 429 kts 289°
2026-04-29 10:38 49.91495 8.10498 36256 ft 431 kts 290°
2026-04-29 10:38 49.93343 8.01611 36259 ft 434 kts 289°
2026-04-29 10:39 49.94790 7.92604 36265 ft 434 kts 278°
2026-04-29 10:39 49.95540 7.83269 36242 ft 436 kts 279°
2026-04-29 10:40 49.96288 7.73909 36233 ft 437 kts 279°
2026-04-29 10:40 49.97026 7.64539 36258 ft 438 kts 279°
2026-04-29 10:41 49.97759 7.55133 36256 ft 439 kts 279°
2026-04-29 10:41 49.98482 7.45725 36253 ft 438 kts 279°
2026-04-29 10:42 49.99200 7.36323 36266 ft 438 kts 278°
2026-04-29 10:42 49.99910 7.26905 36250 ft 440 kts 279°
2026-04-29 10:43 50.00614 7.17445 36270 ft 441 kts 279°
2026-04-29 10:43 50.01313 7.07965 36262 ft 441 kts 278°
2026-04-29 10:44 50.02006 6.98478 36256 ft 441 kts 279°
2026-04-29 10:44 50.03299 6.89270 36222 ft 433 kts 299°
2026-04-29 10:45 50.06121 6.80976 36196 ft 435 kts 300°
2026-04-29 10:45 50.09037 6.72645 36240 ft 439 kts 301°
2026-04-29 10:46 50.11978 6.64326 36233 ft 438 kts 301°
2026-04-29 10:46 50.14910 6.56017 36233 ft 437 kts 301°
2026-04-29 10:47 50.17834 6.47709 36227 ft 438 kts 301°
2026-04-29 10:47 50.20968 6.39572 36227 ft 437 kts 304°
2026-04-29 10:48 50.24099 6.31471 36226 ft 436 kts 303°
2026-04-29 10:48 50.27214 6.23373 36247 ft 440 kts 304°
2026-04-29 10:49 50.30372 6.15136 36245 ft 442 kts 304°
2026-04-29 10:49 50.33522 6.06893 36240 ft 442 kts 303°
2026-04-29 10:50 50.36674 5.98620 36226 ft 443 kts 303°
2026-04-29 10:50 50.39831 5.90306 36242 ft 445 kts 303°
2026-04-29 10:51 50.42985 5.81973 36242 ft 445 kts 303°
2026-04-29 10:51 50.46137 5.73618 36235 ft 445 kts 303°
2026-04-29 10:52 50.49301 5.65205 36240 ft 445 kts 303°
2026-04-29 10:52 50.52439 5.56834 36216 ft 446 kts 303°
2026-04-29 10:53 50.55610 5.48347 36236 ft 452 kts 303°
2026-04-29 10:53 50.58781 5.39830 36254 ft 451 kts 303°
2026-04-29 10:54 50.61941 5.31319 36255 ft 451 kts 303°
2026-04-29 10:54 50.64566 5.24224 36265 ft 452 kts 303°
2026-04-29 10:55 50.68236 5.14271 36268 ft 451 kts 302°
2026-04-29 10:55 50.71391 5.05687 36276 ft 454 kts 303°
2026-04-29 10:56 50.74549 4.97067 36258 ft 453 kts 302°
2026-04-29 10:56 50.77186 4.89843 36268 ft 452 kts 303°
2026-04-29 10:56 50.78724 4.85620 36174 ft 438 kts 303°
2026-04-29 10:57 50.80235 4.81469 35716 ft 435 kts 303°
2026-04-29 10:57 50.81737 4.77333 35177 ft 434 kts 303°
2026-04-29 10:57 50.83241 4.73187 34646 ft 434 kts 303°
2026-04-29 10:57 50.84739 4.69052 34086 ft 433 kts 304°
2026-04-29 10:58 50.86229 4.64929 33503 ft 431 kts 304°
2026-04-29 10:58 50.87713 4.60818 33053 ft 428 kts 303°
2026-04-29 10:58 50.89183 4.56744 32624 ft 425 kts 303°
2026-04-29 10:58 50.90662 4.52791 32129 ft 422 kts 306°
2026-04-29 10:59 50.92205 4.48832 31597 ft 422 kts 306°
2026-04-29 10:59 50.93736 4.44872 31132 ft 420 kts 306°
2026-04-29 10:59 50.95257 4.40926 30699 ft 418 kts 305°
2026-04-29 10:59 50.96767 4.36998 30247 ft 416 kts 305°
2026-04-29 11:00 50.98268 4.33086 29727 ft 415 kts 305°
2026-04-29 11:00 50.99763 4.29188 29280 ft 411 kts 305°
2026-04-29 11:00 51.01241 4.25323 28858 ft 408 kts 305°
2026-04-29 11:00 51.02707 4.21488 28432 ft 405 kts 305°
2026-04-29 11:01 51.04163 4.17672 28030 ft 402 kts 304°
2026-04-29 11:01 51.05605 4.13887 27624 ft 399 kts 304°
2026-04-29 11:01 51.07036 4.10123 27212 ft 396 kts 304°
2026-04-29 11:01 51.08458 4.06386 26822 ft 394 kts 305°
2026-04-29 11:02 51.10131 4.03012 26336 ft 385 kts 323°
2026-04-29 11:02 51.12249 4.00453 25967 ft 380 kts 327°
2026-04-29 11:02 51.14336 3.97924 25612 ft 376 kts 327°
2026-04-29 11:02 51.16492 3.95596 25062 ft 374 kts 338°
2026-04-29 11:03 51.18976 3.94471 24319 ft 372 kts
2026-04-29 11:03 51.21543 3.94743 23594 ft 372 kts 14°
2026-04-29 11:03 51.24108 3.95485 22795 ft 378 kts 13°
2026-04-29 11:03 51.26723 3.96190 21992 ft 384 kts 12°
2026-04-29 11:04 51.29382 3.96882 21197 ft 389 kts 12°
2026-04-29 11:04 51.32071 3.97574 20422 ft 394 kts 12°
2026-04-29 11:04 51.34797 3.98276 19650 ft 398 kts 12°
2026-04-29 11:04 51.37545 3.98986 18925 ft 401 kts 12°
2026-04-29 11:05 51.40293 3.99704 18393 ft 398 kts 12°
2026-04-29 11:05 51.43005 4.00418 17921 ft 392 kts 12°
2026-04-29 11:05 51.45676 4.01127 17507 ft 385 kts 12°
2026-04-29 11:05 51.48300 4.01823 17108 ft 379 kts 13°
2026-04-29 11:06 51.50883 4.02510 16695 ft 374 kts 13°
2026-04-29 11:06 51.53432 4.03185 16298 ft 369 kts 12°
2026-04-29 11:06 51.55980 4.03860 15915 ft 364 kts 13°
2026-04-29 11:06 51.58460 4.04520 15529 ft 360 kts 12°
2026-04-29 11:07 51.60914 4.05171 15115 ft 357 kts 12°
2026-04-29 11:07 51.63341 4.05813 14554 ft 359 kts 13°
2026-04-29 11:07 51.65830 4.06474 14136 ft 356 kts 12°
2026-04-29 11:07 51.68263 4.07118 13733 ft 352 kts 12°
2026-04-29 11:08 51.70665 4.07757 13344 ft 348 kts 13°
2026-04-29 11:08 51.73037 4.08390 12984 ft 343 kts 12°
2026-04-29 11:08 51.75384 4.09014 12613 ft 339 kts 14°
2026-04-29 11:08 51.77667 4.09623 12273 ft 335 kts 13°
2026-04-29 11:09 51.79954 4.10234 11923 ft 332 kts 13°
2026-04-29 11:09 51.82250 4.10846 11555 ft 328 kts 13°
2026-04-29 11:09 51.84461 4.11437 11225 ft 325 kts 14°
2026-04-29 11:09 51.86680 4.12031 10857 ft 322 kts 14°
2026-04-29 11:10 51.88881 4.12615 10533 ft 319 kts 14°
2026-04-29 11:10 51.91029 4.13378 10117 ft 313 kts 26°
2026-04-29 11:10 51.92831 4.15282 9533 ft 310 kts 44°
2026-04-29 11:10 51.94482 4.17499 9241 ft 305 kts 42°
2026-04-29 11:11 51.96088 4.19607 8944 ft 290 kts 41°
2026-04-29 11:11 51.97616 4.21622 8609 ft 277 kts 42°
2026-04-29 11:11 51.99078 4.23556 8299 ft 266 kts 43°
2026-04-29 11:11 52.00484 4.25416 7973 ft 256 kts 43°
2026-04-29 11:12 52.01839 4.27214 7678 ft 249 kts 43°
2026-04-29 11:12 52.03199 4.29019 7208 ft 256 kts 43°
2026-04-29 11:12 52.04574 4.30843 6921 ft 254 kts 43°
2026-04-29 11:12 52.05931 4.32646 6590 ft 253 kts 43°
2026-04-29 11:13 52.07293 4.34454 6300 ft 252 kts 43°
2026-04-29 11:13 52.08643 4.36250 6015 ft 250 kts 44°
2026-04-29 11:13 52.09988 4.38039 5677 ft 250 kts 44°
2026-04-29 11:13 52.11324 4.39818 5394 ft 247 kts 44°
2026-04-29 11:14 52.12649 4.41587 5095 ft 246 kts 45°
2026-04-29 11:14 52.13968 4.43347 4738 ft 245 kts 45°
2026-04-29 11:14 52.15288 4.45110 4426 ft 244 kts 45°
2026-04-29 11:14 52.16604 4.46867 4080 ft 245 kts 45°
2026-04-29 11:15 52.17633 4.48245 3820 ft 245 kts 45°
2026-04-29 11:15 52.18950 4.50006 3495 ft 246 kts 44°
2026-04-29 11:15 52.20253 4.51814 3167 ft 244 kts 49°
2026-04-29 11:15 52.21314 4.53932 2830 ft 239 kts 60°
2026-04-29 11:16 52.22160 4.56186 2554 ft 226 kts 61°
2026-04-29 11:16 52.22961 4.58275 2239 ft 213 kts 60°
2026-04-29 11:16 52.23719 4.60255 2012 ft 199 kts 59°
2026-04-29 11:16 52.24440 4.62124 1701 ft 190 kts 60°
2026-04-29 11:17 52.25118 4.63886 1466 ft 174 kts 60°
2026-04-29 11:17 52.25714 4.65429 1239 ft 148 kts 59°
2026-04-29 11:17 52.26229 4.66769 1021 ft 131 kts 58°
2026-04-29 11:17 52.26707 4.68010 860 ft 128 kts 58°
2026-04-29 11:18 52.27185 4.69248 702 ft 129 kts 59°
2026-04-29 11:18 52.27660 4.70483 542 ft 127 kts 58°
2026-04-29 11:18 52.28128 4.71703 364 ft 127 kts 60°
2026-04-29 11:18 52.28608 4.72916 169 ft 126 kts 59°
2026-04-29 11:19 52.29069 4.74131 12 ft 124 kts 59°
2026-04-29 11:19 52.29475 4.75194 0 ft 98 kts 58°
2026-04-29 11:19 52.29803 4.76047 -2 ft 81 kts 58°
2026-04-29 11:19 52.30040 4.76664 0 ft 58 kts 58°
2026-04-29 11:20 52.30233 4.77165 -1 ft 47 kts 57°
2026-04-29 11:20 52.30388 4.77379 0 ft 23 kts 28°
2026-04-29 11:20 52.30495 4.77393 1 ft 12 kts 326°
2026-04-29 11:20 52.30546 4.77339 1 ft 9 kts 327°
2026-04-29 11:21 52.30571 4.77249 1 ft 10 kts 259°
2026-04-29 11:21 52.30532 4.77138 1 ft 13 kts 237°
2026-04-29 11:21 52.30497 4.77000 1 ft 14 kts 283°
2026-04-29 11:21 52.30576 4.76898 1 ft 16 kts 324°
2026-04-29 11:22 52.30645 4.76760 1 ft 13 kts 321°
2026-04-29 11:22 52.30643 4.76677 1 ft 9 kts 234°
2026-04-29 11:22 52.30626 4.76635 1 ft 0 kts 237°